User: anonymous   Login
Location: Unspecified
(0.0000°N, 0.0000°E)
Time: 11:03:29
(UTC+00:00)
Language:

UNISAT 2 - Orbit

View from above orbital plane
View from above orbital plane
View from above satellite
View from above satellite

Ground track
Ground track

The orbit data is extracted from the following two-line orbital elements,

1 27608U 02058D   17352.02523809  .00000006  00000-0  20589-4 0  9999
2 27608  64.5543 208.4272 0036914 348.8066  11.2212 14.77874875807805
Epoch (UTC): 18 December 2017 00:36:20
Eccentricity: 0.0036914
inclination: 64.5543°
perigee height: 610 km
apogee height: 662 km
right ascension of ascending node: 208.4272°
argument of perigee: 348.8066°
revolutions per day: 14.77874875
mean anomaly at epoch: 11.2212°
orbit number at epoch: 80780

The dashed part of the orbit path shows where the satellite is in the earth's shadow,  

DLR